SCP
0 0 0 0 0 0 0 0 0 0 0 0 0 1 1 1 1 1 1 1 1 2 2 3 3 3 4 4 4 4 3 3 3 3 2 2 2 2 2 2 2 2 2 2
0 0 0 0 0 0 0 0 0 0 0 0 1 1 1 1 1 1 1 1 1 2 2 2 3 3 3 3 4 3 3 3 3 3 2 2 2 2 2 2 2 2 2 2
0 0 0 0 0 0 0 0 0 0 0 1 1 1 1 1 1 1 1 1 1 1 2 2 2 2 3 3 3 3 3 3 3 3 2 2 2 2 2 2 2 2 2 2
0 0 0 0 0 0 0 0 0 0 1 1 1 1 1 1 1 1 1 1 1 1 2 2 2 2 2 2 3 3 3 3 3 3 2 2 2 2 2 2 2 2 2 2
0 0 0 0 0 0 0 0 0 1 1 1 1 1 1 1 1 1 1 1 1 1 2 2 2 2 2 2 2 3 3 3 3 3 2 2 2 3 3 3 2 2 2 2
0 0 0 0 0 0 0 0 0 1 1 1 1 1 1 1 1 1 1 1 1 1 2 2 2 2 2 2 2 3 3 3 3 2 2 2 2 2 2 2 2 2 2 1
0 0 0 0 0 0 0 0 0 0 1 1 1 1 1 1 1 1 1 1 1 1 2 2 2 2 2 2 2 2 2 2 2 2 2 2 2 2 2 2 2 1 1 1
0 0 0 0 0 0 1 1 0 0 0 1 1 1 1 1 1 1 1 1 1 2 2 2 2 2 2 2 2 2 2 2 2 1 1 1 2 2 2 2 1 1 1 1
0 0 0 0 0 0 1 1 0 0 0 0 1 1 1 1 1 1 1 1 1 2 2 2 2 2 1 2 2 2 1 1 1 1 1 1 1 1 2 2 1 1 1 1
0 0 0 0 0 0 0 0 0 0 0 0 1 1 1 1 1 1 1 1 1 1 1 1 1 1 1 1 1 1 1 1 1 1 1 1 1 1 1 1 1 1 1 1
0 0 0 0 0 0 0 0 0 0 0 0 1 1 1 1 1 1 1 1 1 1 1 1 1 1 1 1 1 1 1 1 1 1 1 1 1 1 1 1 1 1 1 1
0 0 0 0 0 0 0 0 0 0 0 0 1 1 1 1 1 1 1 1 1 1 1 1 1 1 1 1 1 1 1 1 1 1 1 1 1 1 1 1 1 1 1 1
0 0 0 0 0 0 0 0 0 0 0 0 1 1 1 1 1 1 1 1 1 1 1 1 1 1 1 1 1 1 1 1 1 1 1 1 1 1 1 0 0 0 0 0
0 0 0 0 0 0 0 0 0 0 0 0 0 1 1 1 1 1 1 1 1 1 1 1 1 1 1 1 1 1 1 1 1 1 1 1 1 1 1 1 0 0 0 0
0 0 0 0 0 0 0 0 0 0 0 0 0 0 0 1 1 1 1 1 1 1 1 0 0 1 1 1 1 1 1 1 0 0 1 1 1 1 1 1 0 0 0 0
0 0 0 0 0 0 0 0 0 0 0 0 0 0 0 0 1 1 1 1 1 1 1 1 0 1 1 1 1 1 1 0 0 0 0 0 1 0 0 1 0 0 0 0
0 0 0 0 0 0 0 0 0 0 0 0 0 0 0 0 0 1 1 0 0 0 0 0 0 0 1 1 1 1 1 0 0 0 0 0 0 0 0 0 0 1 0 0
0 0 0 0 0 0 0 0 0 0 0 0 0 0 0 0 0 0 0 0 0 0 0 0 0 0 1 1 1 1 1 0 0 0 0 0 0 0 0 0 0 0 0 0
0 0 0 0 0 0 0 0 0 0 0 0 0 0 0 0 0 0 0 0 0 0 0 0 0 0 0 1 1 1 1 0 0 0 0 0 0 0 0 0 0 0 -0 -0
0 0 0 0 0 0 0 0 0 0 0 0 0 0 0 0 0 0 0 0 0 0 0 0 0 0 0 0 0 0 0 0 0 0 0 0 0 0 0 0 0 0 -0 0
0 0 0 0 0 0 0 0 0 0 0 0 0 0 0 0 0 0 0 0 0 0 0 0 0 0 0 0 0 0 0 0 0 1 1 0 0 0 0 0 0 0 0 0
0 0 0 0 0 0 0 0 0 0 0 0 0 0 0 0 0 0 0 0 0 0 0 0 0 0 0 0 0 0 0 0 0 0 0 0 0 0 0 0 0 0 0 0
0 0 0 0 0 0 0 0 0 0 0 0 0 0 0 0 0 0 0 0 0 0 0 0 0 0 0 0 0 0 0 0 0 0 0 0 0 0 0 0 0 0 0 0
0 0 0 0 0 0 0 0 0 0 0 0 0 0 0 0 0 0 0 0 0 0 0 0 0 0 0 0 0 0 0 0 0 0 0 0 0 0 0 0 0 0 0 0
0 0 0 0 0 0 0 0 0 0 0 0 0 0 0 0 0 0 0 0 0 0 0 0 0 0 0 0 0 0 0 0 0 0 0 0 0 0 0 0 0 0 0 0
0 0 0 0 0 0 0 0 0 0 0 0 0 0 0 0 0 0 0 0 0 0 0 0 0 0 0 0 0 0 0 0 0 0 0 0 0 0 0 0 0 0 0 0
0 0 0 0 0 0 0 0 0 0 0 0 0 0 0 0 0 0 0 0 0 0 0 0 0 0 0 0 0 0 0 0 0 0 0 0 0 0 0 0 0 0 0 0
Wind_Speed
14 15 14 14 15 14 13 13 14 12 8 5 2 2 4 6 5 4 2 2 2 3 3 2 2 2 3 5 6 7 7 8 9 8 7 6 6 6 6 6 7 5 5 5
14 15 14 16 16 14 13 13 14 14 10 5 1 4 4 4 3 2 1 1 1 2 2 2 2 2 2 3 4 5 6 7 7 7 7 7 6 6 6 6 5 5 5 5
13 14 15 15 14 12 11 10 10 10 6 3 3 4 3 2 2 1 2 2 2 2 2 1 2 2 2 2 3 4 5 5 6 6 6 6 7 6 6 5 4 4 4 4
12 13 17 11 9 9 9 9 8 5 3 3 3 3 3 4 3 2 1 1 0 1 2 2 2 2 1 2 2 4 4 4 4 5 5 5 5 5 5 4 4 4 3 3
10 13 15 12 7 7 7 9 5 4 3 3 3 1 2 5 5 4 3 2 2 1 1 1 1 1 1 2 3 4 4 4 4 4 4 4 5 5 4 4 4 4 3 3
10 13 14 8 5 5 6 6 4 4 4 5 5 4 2 4 3 3 3 2 1 1 0 1 1 1 1 1 2 3 2 2 2 2 3 3 3 3 3 3 3 3 3 2
13 14 11 7 7 6 7 2 4 4 4 3 4 4 3 3 3 3 2 2 1 1 1 2 1 1 1 0 1 2 2 2 2 2 3 3 3 3 3 4 4 3 3 2
11 14 9 7 6 5 3 4 4 4 4 4 4 3 2 2 2 1 1 1 1 1 2 2 1 1 1 1 1 2 2 2 3 2 3 3 3 3 4 4 4 3 2 2
6 5 4 7 6 5 5 5 5 5 5 4 4 2 2 1 1 1 1 1 0 2 2 2 1 1 2 1 1 2 2 2 2 2 1 2 3 4 4 3 3 3 3 3
6 4 4 5 6 6 6 5 6 6 6 4 4 3 2 1 1 0 0 0 1 2 3 2 2 1 2 1 1 2 2 2 2 2 2 1 1 2 3 3 3 2 2 2
7 5 4 4 5 6 6 6 7 7 7 5 3 3 3 2 1 0 1 1 2 2 2 2 2 2 2 2 1 2 2 2 2 2 2 2 2 1 2 2 2 3 2 2
6 5 5 5 5 7 7 7 7 8 7 6 5 4 3 1 1 0 1 1 2 2 2 2 2 2 2 2 2 3 3 3 2 2 2 3 3 3 5 3 4 4 2 2
5 7 6 6 6 7 7 7 7 5 4 5 5 4 2 1 1 0 1 2 2 2 2 2 1 1 2 2 2 3 3 2 2 2 2 2 3 3 3 3 4 5 4 5
5 5 7 7 7 6 6 5 5 5 4 4 3 2 1 1 1 0 1 1 1 1 1 1 1 1 2 3 3 3 2 2 2 2 2 3 3 3 3 4 3 2 2 4
6 6 6 6 6 6 5 4 4 4 4 3 2 1 1 1 1 1 0 1 1 1 1 1 1 1 1 3 3 3 2 2 2 2 2 2 2 2 2 3 3 3 2 2
7 6 5 6 6 6 6 6 5 4 3 3 2 1 1 1 1 1 0 1 1 1 1 1 1 1 2 3 3 2 1 1 1 1 1 2 2 2 2 2 3 3 3 3
7 6 5 6 6 6 6 6 5 4 3 2 2 2 2 2 1 1 1 2 2 2 2 2 2 1 1 2 2 2 2 2 2 2 2 2 2 2 2 2 2 3 3 4
7 7 6 5 5 6 6 5 5 4 3 2 1 2 2 2 1 1 1 1 1 1 2 2 2 1 1 2 2 1 1 2 2 1 1 1 2 2 2 2 2 2 3 4
6 6 6 5 5 5 5 4 3 2 2 2 2 2 1 1 1 1 1 1 2 2 2 2 2 2 2 3 2 2 2 2 2 2 1 2 2 2 2 2 2 2 2 3
4 4 4 4 4 3 3 3 2 1 2 2 2 1 1 1 1 0 1 1 2 1 2 2 3 2 2 3 2 2 3 3 3 2 2 2 2 2 2 2 2 2 1 2
3 3 2 2 2 2 2 2 1 1 1 1 1 1 1 1 1 0 1 1 0 1 1 3 2 2 2 1 2 2 2 2 2 2 2 2 2 2 2 2 2 2 2 2
2 2 2 2 2 2 2 2 2 1 1 1 1 1 1 1 1 1 1 1 0 1 1 2 1 1 1 1 2 2 2 1 1 1 1 1 2 2 2 2 2 2 2 2
2 2 1 1 2 2 2 1 1 1 1 1 1 1 1 1 2 2 2 1 1 2 1 0 1 2 2 1 1 1 1 0 0 1 1 1 1 1 1 2 2 2 2 2
3 2 2 2 2 2 2 2 1 1 1 1 2 2 2 2 2 2 1 2 3 3 1 1 3 3 2 1 1 1 0 0 0 0 1 1 1 1 1 1 1 1 1 1
2 3 2 2 2 2 2 2 2 2 2 1 2 1 2 2 1 1 0 1 2 3 1 2 4 4 2 1 1 0 0 0 0 0 1 1 0 0 0 1 1 1 1 1
3 3 2 2 2 2 2 2 2 2 2 1 1 2 1 1 2 1 1 1 2 2 2 2 3 3 1 1 0 0 0 0 1 0 1 1 1 1 1 1 1 1 1 1
3 2 2 2 2 2 2 2 2 1 1 1 1 1 1 1 1 1 1 1 2 2 1 2 2 1 1 1 1 0 0 0 0 0 1 1 0 1 1 1 0 1 1 1
Wind_Direction
275 281 283 275 267 260 260 268 275 279 281 288 354 48 71 92 94 90 75 76 85 113 119 136 138 180 193 176 179 179 180 182 183 184 183 189 193 190 193 197 202 196 200 205
270 272 276 276 274 268 259 257 263 272 277 300 18 72 75 93 106 114 125 170 141 123 128 153 160 195 194 182 184 178 180 184 180 181 185 191 194 192 192 197 203 200 204 205
272 276 272 261 267 271 271 272 273 276 293 355 28 34 38 73 102 136 188 211 199 187 164 189 185 193 191 196 186 182 178 181 178 184 192 197 201 196 196 196 200 204 212 210
268 273 266 272 287 283 282 286 295 308 334 8 29 40 44 32 36 46 24 24 27 191 175 187 191 173 170 198 200 174 172 177 172 181 190 192 193 193 192 187 196 205 213 214
260 263 264 268 275 284 288 288 319 332 348 350 355 334 80 45 48 33 13 9 11 331 202 180 172 162 163 208 186 176 176 170 173 182 186 188 192 188 179 177 187 199 205 205
253 260 265 277 298 307 290 271 359 356 350 338 344 313 353 33 37 3 359 347 342 313 26 106 130 173 185 199 163 164 163 148 143 157 179 188 185 181 173 181 191 196 191 193
252 258 261 296 314 296 264 294 347 346 345 342 351 352 3 353 3 4 351 337 349 1 61 62 77 114 132 140 165 149 134 139 149 164 185 185 182 180 176 189 191 191 183 179
251 257 259 341 327 334 359 4 355 349 347 351 0 15 13 352 351 9 2 4 1 57 76 82 79 131 133 105 112 121 136 146 152 177 206 184 175 187 191 192 188 181 179 182
268 280 353 2 1 11 6 357 349 342 337 340 325 327 332 350 348 15 24 38 209 129 108 106 99 137 141 137 147 137 136 147 157 178 188 178 184 189 188 186 189 186 181 187
291 281 315 340 354 359 357 346 330 317 309 303 302 309 315 309 301 311 355 328 128 126 127 118 117 109 127 128 139 141 151 152 162 174 179 159 176 190 180 176 180 177 188 190
279 292 314 320 333 335 339 338 330 321 313 309 306 306 304 303 287 202 121 109 115 119 128 140 145 130 140 137 154 152 155 166 183 186 170 134 143 130 159 136 163 179 197 198
283 316 311 309 320 321 319 317 313 312 317 321 314 305 293 278 323 59 119 115 125 144 158 162 161 147 144 148 162 165 185 198 198 187 165 166 161 126 65 84 107 116 126 136
320 319 312 305 304 304 300 297 298 301 305 306 309 302 287 274 242 145 146 162 174 175 171 173 167 167 168 167 177 181 193 196 198 190 169 178 178 168 146 94 84 88 106 113
327 315 300 295 298 302 300 304 310 304 294 289 296 301 290 307 348 11 192 191 205 180 179 196 187 190 186 173 172 182 198 183 195 187 182 184 182 176 162 159 149 127 111 138
292 288 284 292 297 297 292 290 289 287 290 293 291 285 270 293 309 308 282 179 183 217 217 200 197 196 183 175 165 179 202 195 192 183 181 179 161 159 164 161 153 146 133 136
286 284 279 279 283 288 291 288 285 285 286 285 286 291 297 284 282 267 195 163 179 234 224 184 189 208 178 167 169 177 172 143 171 203 193 166 163 180 172 161 161 158 164 159
284 279 276 278 283 288 293 293 291 291 282 265 275 293 287 269 250 233 217 200 199 224 223 209 210 209 171 172 187 183 174 171 189 217 215 181 174 177 179 183 185 181 170 159
281 282 280 278 284 290 294 301 302 295 280 274 274 278 285 272 251 256 250 244 223 206 215 212 194 194 171 165 172 184 185 190 195 224 219 182 175 174 179 187 191 185 161 156
285 284 280 278 282 283 292 302 301 299 298 290 260 250 258 276 259 248 247 248 245 235 225 197 187 196 187 174 178 193 197 201 194 187 177 148 162 176 183 183 182 194 179 167
296 296 291 281 285 287 292 297 300 308 299 294 294 283 254 267 280 250 203 237 249 249 192 169 181 199 195 174 189 211 208 210 204 185 169 163 167 179 181 177 179 184 183 183
317 309 294 286 302 314 304 307 306 293 292 290 284 272 258 250 272 204 216 244 297 47 130 149 177 191 198 154 186 226 226 207 194 187 176 168 176 189 185 185 188 190 189 189
336 324 323 328 323 310 306 307 298 292 313 318 298 276 261 267 261 238 227 264 252 114 155 180 185 122 118 147 214 234 233 193 168 166 171 180 190 198 196 201 195 188 186 195
333 330 339 344 326 311 305 301 299 290 289 291 285 263 248 261 259 249 235 213 165 133 180 169 106 102 109 197 246 256 270 246 148 131 213 223 207 209 210 212 208 203 189 188
324 317 300 285 268 272 278 268 259 253 257 263 251 235 234 243 249 250 252 137 136 146 189 124 133 138 160 216 232 237 291 283 227 193 251 246 218 196 205 225 204 160 140 148
291 282 277 272 265 260 248 242 243 237 233 235 231 213 224 228 231 243 125 127 138 158 176 141 166 176 195 215 212 289 312 319 353 350 298 282 264 185 111 121 110 106 100 100
287 269 259 246 250 255 250 243 242 239 239 236 234 237 233 198 188 192 175 173 166 185 195 169 179 190 196 189 177 207 219 139 145 236 263 282 350 36 77 76 66 77 91 99
277 265 250 244 240 246 245 236 238 238 229 225 239 241 240 230 191 186 193 186 179 192 186 166 173 172 168 178 167 183 163 121 116 72 58 54 33 37 67 101 128 141 130 105